Newport, Oregon, United States (97365)
Lat: 44.64N, Lon: 124.05W
Wx Zone: ORZ002
Local Info
Past Weather Observations for Today

NOTE: This archive is for the closest National Weather Service station to Newport. Information may differ from the station used for current weather conditions.

Click here for Long-term Archive

Time Weather Temperature Dewpoint Humidity Pressure Winds Precip Visibility
11:55
Clear
54°F / 12°C 32°F / 0°C 44% 30.3 in
(1026 mb)
NW 6.9 mph
(NW 11 kph)
- 10SM
11:35
Clear
54°F / 12°C 30°F / -1°C 41% 30.3 in
(1026 mb)
E 3.5 mph
(E 6 kph)
- 10SM
11:15
Clear
52°F / 11°C 30°F / -1°C 44% 30.3 in
(1026 mb)
NE 4.6 mph
(NE 7 kph)
- 10SM
10:55
Clear
52°F / 11°C 32°F / 0°C 47% 30.3 in
(1026 mb)
E 8.1 mph
(E 13 kph)
- 10SM
10:35
Clear
52°F / 11°C 32°F / 0°C 47% 30.3 in
(1026 mb)
ENE 6.9 mph
(ENE 11 kph)
- 10SM
10:15
Clear
50°F / 10°C 32°F / 0°C 50% 30.3 in
(1026 mb)
E 5.8 mph
(E 9 kph)
- 10SM
09:55
Clear
48°F / 9°C 32°F / 0°C 54% 30.3 in
(1026 mb)
ENE 6.9 mph
(ENE 11 kph)
- 10SM
09:35
Clear
46°F / 8°C 32°F / 0°C 57% 30.3 in
(1026 mb)
ENE 6.9 mph
(ENE 11 kph)
- 10SM
09:15
Clear
45°F / 7°C 32°F / 0°C 61% 30.3 in
(1026 mb)
ENE 6.9 mph
(ENE 11 kph)
- 10SM
08:55
Clear
43°F / 6°C 32°F / 0°C 66% 30.3 in
(1026 mb)
E 9.2 mph
(E 15 kph)
- 10SM
08:35
Clear
41°F / 5°C 32°F / 0°C 70% 30.27 in
(1025 mb)
E 9.2 mph
(E 15 kph)
- 10SM
08:15
Clear
37°F / 3°C 32°F / 0°C 81% 30.27 in
(1025 mb)
E 10.4 mph
(E 17 kph)
- 10SM
07:55
Clear
36°F / 2°C 32°F / 0°C 87% 30.27 in
(1025 mb)
E 10.4 mph
(E 17 kph)
- 10SM
07:35
Clear
36°F / 2°C 32°F / 0°C 87% 30.27 in
(1025 mb)
E 10.4 mph
(E 17 kph)
- 10SM
07:15
Clear
34°F / 1°C 30°F / -1°C 87% 30.27 in
(1025 mb)
E 6.9 mph
(E 11 kph)
- 10SM
06:55
Clear
34°F / 1°C 30°F / -1°C 87% 30.27 in
(1025 mb)
Calm - 10SM
06:35
Clear
34°F / 1°C 30°F / -1°C 87% 30.27 in
(1025 mb)
Calm - 10SM
06:15
Clear
34°F / 1°C 32°F / 0°C 93% 30.24 in
(1024 mb)
E 5.8 mph
(E 9 kph)
- 10SM
05:55
Clear
34°F / 1°C 32°F / 0°C 93% 30.24 in
(1024 mb)
Calm - 10SM
05:35
Clear
34°F / 1°C 32°F / 0°C 93% 30.24 in
(1024 mb)
E 5.8 mph
(E 9 kph)
- 10SM
05:15
Clear
34°F / 1°C 32°F / 0°C 93% 30.24 in
(1024 mb)
E 6.9 mph
(E 11 kph)
- 10SM
04:55
Clear
34°F / 1°C 32°F / 0°C 93% 30.24 in
(1024 mb)
E 10.4 mph
(E 17 kph)
- 10SM
04:35
Clear
36°F / 2°C 32°F / 0°C 87% 30.24 in
(1024 mb)
E 10.4 mph
(E 17 kph)
- 10SM
04:15
Clear
36°F / 2°C 32°F / 0°C 87% 30.24 in
(1024 mb)
E 10.4 mph
(E 17 kph)
- 10SM
03:55
Clear
36°F / 2°C 32°F / 0°C 87% 30.24 in
(1024 mb)
E 9.2 mph
(E 15 kph)
- 10SM
03:35
Clear
36°F / 2°C 34°F / 1°C 93% 30.24 in
(1024 mb)
E 10.4 mph
(E 17 kph)
- 10SM
03:15
Clear
36°F / 2°C 34°F / 1°C 93% 30.24 in
(1024 mb)
E 9.2 mph
(E 15 kph)
- 10SM
02:55
Clear
36°F / 2°C 34°F / 1°C 93% 30.24 in
(1024 mb)
E 10.4 mph
(E 17 kph)
- 10SM
02:35
Clear
36°F / 2°C 34°F / 1°C 93% 30.24 in
(1024 mb)
E 9.2 mph
(E 15 kph)
- 7SM
02:15
Clear
36°F / 2°C 34°F / 1°C 93% 30.24 in
(1024 mb)
E 9.2 mph
(E 15 kph)
- 7SM
01:55
Clear
36°F / 2°C 34°F / 1°C 93% 30.24 in
(1024 mb)
E 9.2 mph
(E 15 kph)
- 10SM
01:35
Clear
37°F / 3°C 36°F / 2°C 93% 30.24 in
(1024 mb)
E 9.2 mph
(E 15 kph)
- 10SM
01:15
Clear
37°F / 3°C 36°F / 2°C 93% 30.24 in
(1024 mb)
E 8.1 mph
(E 13 kph)
- 10SM
00:55
Clear
37°F / 3°C 36°F / 2°C 93% 30.24 in
(1024 mb)
E 8.1 mph
(E 13 kph)
- 10SM
00:35
Clear
37°F / 3°C 36°F / 2°C 93% 30.24 in
(1024 mb)
E 6.9 mph
(E 11 kph)
- 10SM
00:15
Clear
37°F / 3°C 36°F / 2°C 93% 30.24 in
(1024 mb)
E 9.2 mph
(E 15 kph)
- 10SM
Time Weather Temperature Dewpoint Humidity Pressure Winds Precip Visibility


Weather for websites

WeatherForYou.com, LLC is not responsible for any damages or problems caused by this service. Current weather conditions are obtained from the closest station including government and personal stations which may have varying degrees of accuracy. Weather forecasts are derived from the NOAA NDFD. Like all things, this site belongs to Jesus Christ... He just trusts me to maintain it. If you have any questions or comments email webmaster@weatherforyou.com

Copyright © 2015, WeatherForYou.com LLC. All rights reserved.